Location: St Paul
(33.4390°N, 83.7350°W)
Time: 13:54:17
(UTC-05:00)

OAO 3 Rocket - Pass Details

Date: 06 October 2017
Orbit: 630 x 682 km, 35.0° (Epoch: 16 December)

Event Time Altitude Azimuth Distance (km) Brightness Sun altitude
Rises 21:00:56 0° 282° (WNW) 3,026 8.1 -23.4°
Reaches altitude 10° 21:03:20 10° 281° (WNW) 2,107 6.9 -23.9°
Maximum altitude 21:08:16 80° 195° (SSW) 682 3.1 -24.9°
Enters shadow 21:08:20 80° 181° (S) 682 3.1 -25.0°
